When you browse on this site, cookies collect data to enhance your experience and personalize the content and advertising you see.
Visit our Privacy Policy to learn more. By continuing to use the site, you agree to this use of cookies and data.
EN

Hourly Weather Kranevo

Today, 23 September, Wednesday

Time Temperature Precipitation Wind Pressure Humidity
00:00 +15°C° 0 mm 1 mps 758 mmHg 79%
01:00 +15°C° 0 mm 1 mps 758 mmHg 80%
02:00 +15°C° 0 mm 1 mps 758 mmHg 83%
03:00 +15°C° 0 mm 1 mps 758 mmHg 83%
04:00 +15°C° 0 mm 1 mps 758 mmHg 84%
05:00 +15°C° 0 mm 1 mps 758 mmHg 85%
06:00 +18°C° 0 mm 1 mps 758 mmHg 79%
07:00 +19°C° 0 mm 1 mps 758 mmHg 73%
08:00 +21°C° 0 mm 1 mps 758 mmHg 67%
09:00 +21°C° 0 mm 2 mps 757 mmHg 61%
10:00 +24°C° 0 mm 3 mps 757 mmHg 55%
11:00 +26°C° 0 mm 3 mps 757 mmHg 49%
12:00 +26°C° 0 mm 3 mps 757 mmHg 48%
13:00 +26°C° 0 mm 4 mps 756 mmHg 48%
14:00 +27°C° 0 mm 4 mps 756 mmHg 47%
15:00 +26°C° 0 mm 4 mps 755 mmHg 52%
16:00 +25°C° 0 mm 5 mps 755 mmHg 58%
17:00 +22°C° 0 mm 5 mps 754 mmHg 63%
18:00 +21°C° 0 mm 5 mps 755 mmHg 68%
19:00 +20°C° 0 mm 4 mps 755 mmHg 73%
20:00 +19°C° 0 mm 4 mps 755 mmHg 78%
21:00 +19°C° 0 mm 4 mps 755 mmHg 80%
22:00 +19°C° 0 mm 4 mps 754 mmHg 82%
23:00 +19°C° 0 mm 4 mps 754 mmHg 84%

Tomorrow, 24 September, Thursday

Time Temperature Precipitation Wind Pressure Humidity
00:00 +19°C° 0 mm 4 mps 754 mmHg 86%
01:00 +19°C° 0 mm 4 mps 754 mmHg 88%
02:00 +19°C° 0 mm 3 mps 754 mmHg 89%
03:00 +19°C° 0 mm 3 mps 754 mmHg 90%
04:00 +19°C° 0 mm 3 mps 754 mmHg 90%
05:00 +19°C° 0 mm 3 mps 754 mmHg 91%
06:00 +20°C° 0 mm 3 mps 754 mmHg 85%
07:00 +21°C° 0 mm 4 mps 754 mmHg 79%
08:00 +22°C° 0 mm 4 mps 754 mmHg 73%
09:00 +25°C° 0 mm 4 mps 754 mmHg 63%
10:00 +27°C° 0 mm 4 mps 754 mmHg 53%
11:00 +28°C° 0 mm 4 mps 754 mmHg 43%
12:00 +29°C° 0 mm 4 mps 754 mmHg 42%
13:00 +29°C° 0 mm 4 mps 753 mmHg 42%
14:00 +30°C° 0 mm 4 mps 753 mmHg 41%
15:00 +28°C° 0 mm 5 mps 753 mmHg 49%
16:00 +27°C° 0 mm 5 mps 753 mmHg 56%
17:00 +26°C° 0 mm 5 mps 753 mmHg 63%
18:00 +23°C° 0 mm 4 mps 753 mmHg 72%
19:00 +22°C° 0 mm 4 mps 753 mmHg 80%
20:00 +20°C° 0 mm 4 mps 753 mmHg 89%
21:00 +20°C° 0 mm 3 mps 753 mmHg 89%
22:00 +20°C° 0 mm 3 mps 753 mmHg 89%
23:00 +20°C° 0 mm 3 mps 753 mmHg 90%

Day after tomorrow, 25 September, Friday

Time Temperature Precipitation Wind Pressure Humidity
00:00 +20°C° 0 mm 3 mps 753 mmHg 90%
01:00 +20°C° 0 mm 2 mps 753 mmHg 89%
02:00 +20°C° 0 mm 2 mps 753 mmHg 89%
03:00 +19°C° 0 mm 2 mps 753 mmHg 89%
04:00 +19°C° 0 mm 2 mps 753 mmHg 89%
05:00 +19°C° 0 mm 2 mps 753 mmHg 90%
06:00 +20°C° 0 mm 2 mps 753 mmHg 84%
07:00 +23°C° 0 mm 2 mps 753 mmHg 78%
08:00 +24°C° 0 mm 3 mps 752 mmHg 72%
09:00 +25°C° 0 mm 3 mps 752 mmHg 65%
10:00 +27°C° 0 mm 4 mps 752 mmHg 57%
11:00 +28°C° 0 mm 5 mps 752 mmHg 50%
12:00 +28°C° 0 mm 5 mps 752 mmHg 49%
13:00 +28°C° 0 mm 5 mps 751 mmHg 49%
14:00 +29°C° 0 mm 6 mps 751 mmHg 48%
15:00 +27°C° 0 mm 5 mps 750 mmHg 53%
16:00 +26°C° 0 mm 5 mps 750 mmHg 57%
17:00 +25°C° 0 mm 5 mps 749 mmHg 62%
18:00 +23°C° 0 mm 5 mps 749 mmHg 69%
19:00 +22°C° 0 mm 5 mps 749 mmHg 76%
20:00 +21°C° 0 mm 4 mps 750 mmHg 82%
21:00 +21°C° 0 mm 5 mps 749 mmHg 83%
22:00 +21°C° 0 mm 5 mps 749 mmHg 84%
23:00 +21°C° 0 mm 5 mps 749 mmHg 86%

26 September, Saturday

Time Temperature Precipitation Wind Pressure Humidity
00:00 +21°C° 0 mm 5 mps 748 mmHg 87%
01:00 +21°C° 0 mm 5 mps 748 mmHg 88%
02:00 +21°C° 0 mm 5 mps 747 mmHg 89%
03:00 +21°C° 0 mm 5 mps 747 mmHg 90%
04:00 +20°C° 0 mm 5 mps 747 mmHg 91%
05:00 +20°C° 0 mm 5 mps 746 mmHg 92%
06:00 +21°C° 0 mm 6 mps 746 mmHg 87%
07:00 +22°C° 0 mm 6 mps 746 mmHg 81%
08:00 +23°C° 0 mm 7 mps 746 mmHg 76%
09:00 +26°C° 0 mm 7 mps 745 mmHg 69%
10:00 +27°C° 0 mm 8 mps 745 mmHg 62%
11:00 +28°C° 0 mm 8 mps 745 mmHg 56%
12:00 +28°C° 0 mm 8 mps 745 mmHg 54%
13:00 +28°C° 0 mm 8 mps 744 mmHg 52%
14:00 +29°C° 0 mm 7 mps 744 mmHg 51%
15:00 +28°C° 0 mm 7 mps 743 mmHg 53%
16:00 +27°C° 0 mm 7 mps 743 mmHg 55%
17:00 +27°C° 0 mm 7 mps 743 mmHg 58%
18:00 +26°C° 0 mm 7 mps 742 mmHg 60%
19:00 +26°C° 0 mm 8 mps 742 mmHg 62%
20:00 +24°C° 0 mm 9 mps 742 mmHg 65%
21:00 +24°C° 0.9 mm 8 mps 742 mmHg 69%
22:00 +23°C° 0.9 mm 7 mps 742 mmHg 74%
23:00 +22°C° 0.9 mm 6 mps 743 mmHg 78%

27 September, Sunday

Time Temperature Precipitation Wind Pressure Humidity
00:00 +20°C° 0.8 mm 6 mps 742 mmHg 79%
01:00 +19°C° 0.8 mm 5 mps 742 mmHg 80%
02:00 +16°C° 0.8 mm 5 mps 742 mmHg 81%
03:00 +15°C° 0 mm 4 mps 743 mmHg 81%
04:00 +16°C° 0 mm 3 mps 743 mmHg 81%
05:00 +16°C° 0 mm 2 mps 744 mmHg 81%
06:00 +16°C° 0 mm 3 mps 745 mmHg 79%
07:00 +15°C° 0 mm 4 mps 745 mmHg 77%
08:00 +16°C° 0 mm 5 mps 746 mmHg 74%
09:00 +19°C° 0 mm 5 mps 747 mmHg 66%
10:00 +20°C° 0 mm 5 mps 747 mmHg 58%
11:00 +22°C° 0 mm 5 mps 748 mmHg 50%
12:00 +22°C° 0 mm 5 mps 748 mmHg 46%
13:00 +23°C° 0 mm 4 mps 748 mmHg 42%
14:00 +25°C° 0 mm 4 mps 749 mmHg 37%
15:00 +24°C° 0 mm 3 mps 749 mmHg 40%
16:00 +24°C° 0 mm 3 mps 749 mmHg 43%
17:00 +22°C° 0 mm 3 mps 749 mmHg 46%
18:00 +21°C° 0.5 mm 3 mps 750 mmHg 51%
19:00 +19°C° 0.5 mm 3 mps 751 mmHg 57%
20:00 +18°C° 0.5 mm 3 mps 751 mmHg 62%
21:00 +17°C° 0.3 mm 4 mps 752 mmHg 62%
22:00 +15°C° 0.3 mm 5 mps 752 mmHg 62%
23:00 +14°C° 0.3 mm 7 mps 753 mmHg 62%

28 September, Monday

Time Temperature Precipitation Wind Pressure Humidity
00:00 +12°C° 0.1 mm 7 mps 753 mmHg 64%
01:00 +12°C° 0.1 mm 7 mps 753 mmHg 66%
02:00 +11°C° 0.1 mm 7 mps 754 mmHg 68%
03:00 +11°C° 0 mm 7 mps 754 mmHg 66%
04:00 +11°C° 0 mm 6 mps 754 mmHg 64%
05:00 +11°C° 0 mm 6 mps 755 mmHg 62%
06:00 +11°C° 0 mm 6 mps 755 mmHg 60%
07:00 +13°C° 0 mm 6 mps 755 mmHg 58%
08:00 +13°C° 0 mm 6 mps 756 mmHg 57%
09:00 +14°C° 0 mm 6 mps 756 mmHg 51%
10:00 +16°C° 0 mm 5 mps 756 mmHg 46%
11:00 +17°C° 0 mm 5 mps 756 mmHg 40%
12:00 +19°C° 0 mm 5 mps 756 mmHg 37%
13:00 +20°C° 0 mm 5 mps 756 mmHg 34%
14:00 +21°C° 0 mm 5 mps 756 mmHg 31%
15:00 +21°C° 0 mm 4 mps 756 mmHg 30%
16:00 +21°C° 0 mm 4 mps 756 mmHg 30%
17:00 +20°C° 0 mm 4 mps 756 mmHg 30%
18:00 +19°C° 0 mm 4 mps 756 mmHg 38%
19:00 +17°C° 0 mm 3 mps 757 mmHg 47%
20:00 +16°C° 0 mm 3 mps 757 mmHg 56%
21:00 +14°C° 0 mm 3 mps 757 mmHg 60%
22:00 +14°C° 0 mm 3 mps 757 mmHg 65%
23:00 +15°C° 0 mm 2 mps 757 mmHg 70%
Show more